2020-085Y

Last updated on Fri Dec 04 2020 00:02:04 GMT+0000 (Coordinated Universal Time)

1 46951U 20085Y 20338.28950578 .00010739 00000-0 49440-3 0 9994 2 46951 97.3697 112.6397 0014088 262.4804 97.4853 15.20397594 2007
UTC large
Height (km)
Speed (km/s)
/
Latitude / Longitude
Inclination (degrees)
Orbital Period (minutes)
Azimuth
Elevation
Range (km)
Doppler Factor

Next 0 passes for location: London (51.5072 / 0.1276)

Sorry there are no passes over London.